Location: Caltech
(34.1382°N, 118.1253°W)
Time: 00:30:45
(UTC-07:00)

Uosat F - Visible Passes

Search period start: 24 April 2017 00:00
Search period end: 04 May 2017 00:00
Orbit: 750 x 762 km, 98.8° (Epoch: 22 April)

Date Brightness Start Highest point End Pass type
(mag) Time Alt. Az. Time Alt. Az. Time Alt. Az.
25 Apr 14.4 20:22:54 10° WSW 20:23:50 10° W 20:24:46 10° W visible
28 Apr 13.8 20:00:39 10° SW 20:04:00 18° W 20:07:21 10° NW visible
30 Apr 14.3 20:22:55 10° WSW 20:23:59 11° W 20:25:04 10° W visible
03 May 13.8 20:00:46 10° SW 20:04:09 18° W 20:07:33 10° NW visible
